Weather
South African Flight Training AcademyBookingsEnt 1055(rendered 2016-12-10 10:48:50) Member: Guest [54.87.114.118- private]
Go back one day  Today  Go forward one day
00h00-24h00  00h00-12h00  12h00-24h00  05h00-22h00  08h00-18h00   Bookingsheet Key 

Sunrise: 06:44B

Full view Bookings for Saturday, 10th December 2016

Sunset: 17:17B

 05h0006h0007h0008h0009h0010h0011h0012h0013h0014h0015h0016h0017h0018h0019h0020h0021h00

ZS-EVM

Piper 4 Seater Fixed Gear Fixed Pitch

ZS-FHF

Piper 4 Seater Fixed Gear Fixed Pitch

ZS-IHJ

Raytheon Private Aircraft

ZS-JBP

Cessna 4 Seater Fixed Gear/Pitch

ZS-JPH

Beechcraft Private Aircraft

ZS-JVH

Cessna 4 Seater Fixed Gear/Pitch

ZS-KXO

Cessna 4 Seater Trainer

ZS-KZE

Beechcraft Private Aircraft

ZS-MAE

Cessna 4 Seater Fixed Gear/Pitch

ZS-MPF

Cessna 4 Seater Fixed Gear/Pitch

ZS-NFS

Cessna 4 Seater Fixed Gear/Pitch

ZS-OFV

Cessna 4 Seater Fixed Gear/Pitch

ZS-OHU

Piper 4 Seater Fixed Gear Fixed Pitch

ZS-PNV

Cessna 2 Seater Trainer

ZS-PSL

Cessna 4 Seater Fixed Gear/Pitch

ZS-PZD

Cessna 2 Seater Trainer

ZS-PZF

CESSNA Cessna 182T - Private

ZS-RIO

CESSNA Cessna 182T - Private

ZS-SAA

Cessna 4 Seater Fixed Gear/Pitch

ZS-SAE

Cessna 4 Seater Fixed Gear/Pitch

ZS-SCP

Cessna 2 Seater Trainer

ZS-SSG

Cessna 2 Seater Trainer

ZS-SVC

Cessna 4 Seater Fixed Gear/Pitch

ZS-DWC

Cessna 2 Seater Trainer

FAOR METARSPECI 100836Z VRB14KT CAVOK 25/12 Q1021 NOSIG
FALA METAR 100800Z 01010KT 340V040 CAVOK 25/13 Q1020 NOSIG

GASSER ABDO

GROUND INSTRUCTOR

WASEEM BADROODIEN

INSTRUCTOR

ZAINAB BHABHA

INSTRUCTOR

WERNER BOTHA

INSTRUCTOR

VUMILE DLAMINI

INSTRUCTOR

JACO DREYER

INSTRUCTOR, CFI

JACQUES GALE

INSTRUCTOR

AVINASH LOTCHER

INSTRUCTOR

SIMBARASHE MAVHERA

INSTRUCTOR

TSHWANELO MOROOSELE

INSTRUCTOR

MLONDI MTHETHWA

INSTRUCTOR

XABISO NTLOKO

INSTRUCTOR

TAFADZWA NYAKUDYA

INSTRUCTOR

DANIEL VAN DER MERWE

INSTRUCTOR, CGI

NTULI ZELDAH

INSTRUCTOR

FAOR TAF 100400Z 1006/1112 02007KT CAVOK    BECMG 1007/1009 32010KT SCT040    PROB40 TEMPO 1011/1020 5000 TSRA FEW035CB    BECMG 1022/1024 03012KT BKN010    PROB40 TEMPO 1100/1106 4000 BR BKN005    BECMG 1107/1109 SCT020    FM111100 34013KT 9999 SCT035    TX28/1012ZTN15/1103Z
FALA TAF 100400Z 1006/1106 VRB03KT CAVOK    BECMG 1007/1009 34008KT SCT045    PROB40 TEMPO 1011/1020 5000 TSRA FEW040CB    BECMG 1022/1024 05008KT BKN015    PROB40 TEMPO 1100/1106 5000 BR BKN010    TX30/1012ZTN17/1103Z

Briefing1

Briefing room 1

 05h0006h0007h0008h0009h0010h0011h0012h0013h0014h0015h0016h0017h0018h0019h0020h0021h00

index.php last modified on Wed 13 Jun 2012 7:48 PM